AAL2785 KLAX-KLAS

Flight info

Callsign AAL2785
Flight time N/A
Altitude 29000
Route ORCKA5 MISEN RNDRZ4
Aircraft A320/M-SDE3FGHIRWY/LB1

Departure

Time 2026-04-25 15:37
Airport Los Angeles International Airport (KLAX)

Arrival

Time N/A
Airport Harry Reid International Airport (KLAS)
Time Latitude Longitude Altitude Speed Heading
2026-04-25 15:17 33.94022 -118.40366 93 ft 0 kts 264°
2026-04-25 15:24 33.94023 -118.40349 93 ft 4 kts 264°
2026-04-25 15:24 33.94026 -118.40324 93 ft 4 kts 236°
2026-04-25 15:24 33.94044 -118.40316 92 ft 4 kts 174°
2026-04-25 15:24 33.94042 -118.40315 92 ft 4 kts 173°
2026-04-25 15:25 33.94029 -118.40314 94 ft 0 kts 173°
2026-04-25 15:31 33.94016 -118.40311 93 ft 5 kts 171°
2026-04-25 15:32 33.93974 -118.40303 95 ft 6 kts 170°
2026-04-25 15:32 33.93936 -118.40296 95 ft 5 kts 173°
2026-04-25 15:32 33.93899 -118.40291 95 ft 5 kts 173°
2026-04-25 15:33 33.93854 -118.40267 96 ft 7 kts 117°
2026-04-25 15:33 33.93862 -118.40172 97 ft 16 kts 83°
2026-04-25 15:33 33.93879 -118.39996 96 ft 26 kts 85°
2026-04-25 15:33 33.93903 -118.39748 97 ft 33 kts 82°
2026-04-25 15:34 33.93932 -118.39477 95 ft 31 kts 83°
2026-04-25 15:34 33.93959 -118.39210 93 ft 34 kts 83°
2026-04-25 15:34 33.93989 -118.38919 94 ft 36 kts 83°
2026-04-25 15:34 33.93999 -118.38817 95 ft 37 kts 83°
2026-04-25 15:35 33.94078 -118.38058 93 ft 8 kts 85°
2026-04-25 15:35 33.94075 -118.38030 93 ft 0 kts 112°
2026-04-25 15:36 33.93998 -118.37999 95 ft 7 kts 199°
2026-04-25 15:36 33.93981 -118.38050 95 ft 0 kts 261°
2026-04-25 15:36 33.93953 -118.38291 101 ft 66 kts 263°
2026-04-25 15:37 33.93870 -118.39101 96 ft 126 kts 262°
2026-04-25 15:37 33.93739 -118.40347 153 ft 167 kts 263°
2026-04-25 15:37 33.93602 -118.41761 701 ft 172 kts 262°
2026-04-25 15:37 33.93499 -118.43195 1447 ft 172 kts 264°
2026-04-25 15:38 33.93442 -118.44643 2081 ft 178 kts 265°
2026-04-25 15:38 33.93190 -118.46187 2411 ft 199 kts 245°
2026-04-25 15:38 33.92619 -118.47823 2777 ft 225 kts 245°
2026-04-25 15:38 33.91967 -118.49642 3211 ft 249 kts 244°
2026-04-25 15:39 33.91255 -118.51580 3832 ft 261 kts 244°
2026-04-25 15:39 33.90520 -118.53596 4727 ft 264 kts 245°
2026-04-25 15:39 33.89749 -118.55601 5644 ft 265 kts 238°
2026-04-25 15:39 33.88483 -118.57220 6522 ft 270 kts 215°
2026-04-25 15:40 33.86723 -118.58033 7371 ft 277 kts 190°
2026-04-25 15:40 33.86069 -118.58083 7661 ft 280 kts 181°
2026-04-25 15:40 33.83083 -118.56531 9069 ft 298 kts 136°
2026-04-25 15:40 33.82047 -118.54341 9867 ft 310 kts 106°
2026-04-25 15:41 33.82034 -118.51736 10547 ft 319 kts 74°
2026-04-25 15:41 33.83095 -118.49412 11206 ft 321 kts 43°
2026-04-25 15:41 33.84932 -118.47876 11628 ft 331 kts 23°
2026-04-25 15:41 33.87076 -118.46656 11827 ft 352 kts 19°
2026-04-25 15:42 33.89387 -118.45506 12271 ft 364 kts 18°
2026-04-25 15:42 33.91656 -118.44151 12877 ft 375 kts 28°
2026-04-25 15:42 33.93738 -118.42196 13515 ft 385 kts 43°
2026-04-25 15:42 33.95436 -118.39653 14184 ft 394 kts 55°
2026-04-25 15:43 33.96968 -118.36900 14831 ft 398 kts 55°
2026-04-25 15:43 33.98511 -118.34125 15470 ft 400 kts 55°
2026-04-25 15:43 34.00072 -118.31331 16115 ft 403 kts 55°
2026-04-25 15:43 34.01653 -118.28522 16772 ft 406 kts 54°
2026-04-25 15:44 34.03254 -118.25696 17457 ft 410 kts 54°
2026-04-25 15:44 34.04870 -118.22854 18155 ft 413 kts 54°
2026-04-25 15:44 34.06479 -118.20024 18739 ft 416 kts 54°
2026-04-25 15:44 34.08120 -118.17128 19248 ft 420 kts 55°
2026-04-25 15:45 34.09773 -118.14207 19740 ft 424 kts 55°
2026-04-25 15:45 34.11446 -118.11248 20285 ft 429 kts 55°
2026-04-25 15:45 34.13132 -118.08261 20808 ft 433 kts 55°
2026-04-25 15:45 34.13706 -118.07244 20971 ft 434 kts 55°
2026-04-25 15:46 34.16558 -118.02185 21738 ft 442 kts 56°
2026-04-25 15:46 34.18295 -117.99099 22220 ft 447 kts 56°
2026-04-25 15:46 34.20053 -117.95977 22703 ft 451 kts 56°
2026-04-25 15:46 34.21825 -117.92825 23149 ft 456 kts 56°
2026-04-25 15:47 34.23586 -117.89687 23597 ft 460 kts 56°
2026-04-25 15:47 34.25387 -117.86470 24004 ft 464 kts 56°
2026-04-25 15:47 34.27198 -117.83228 24400 ft 467 kts 56°
2026-04-25 15:47 34.29020 -117.79966 24796 ft 469 kts 56°
2026-04-25 15:48 34.30855 -117.76686 25213 ft 472 kts 56°
2026-04-25 15:48 34.32698 -117.73390 25612 ft 474 kts 56°
2026-04-25 15:48 34.34548 -117.70078 25994 ft 476 kts 56°
2026-04-25 15:48 34.36424 -117.66761 26366 ft 479 kts 55°
2026-04-25 15:49 34.38357 -117.63466 26706 ft 481 kts 54°
2026-04-25 15:49 34.40335 -117.60183 27052 ft 484 kts 53°
2026-04-25 15:49 34.42339 -117.56894 27386 ft 486 kts 53°
2026-04-25 15:49 34.44321 -117.53641 27712 ft 488 kts 53°
2026-04-25 15:50 34.46331 -117.50318 28149 ft 489 kts 53°
2026-04-25 15:50 34.48332 -117.46977 28494 ft 491 kts 53°
2026-04-25 15:50 34.50334 -117.43611 28770 ft 494 kts 53°
2026-04-25 15:50 34.52350 -117.40206 28930 ft 500 kts 53°
2026-04-25 15:51 34.55089 -117.35573 28965 ft 510 kts 53°
2026-04-25 15:51 34.58562 -117.29691 28962 ft 522 kts 53°
2026-04-25 15:51 34.60686 -117.26097 28958 ft 526 kts 53°
2026-04-25 15:52 34.64960 -117.18879 28927 ft 533 kts 53°
2026-04-25 15:52 34.69289 -117.11542 28848 ft 535 kts 53°
2026-04-25 15:53 34.73620 -117.04172 28850 ft 536 kts 53°
2026-04-25 15:53 34.77901 -116.96881 28852 ft 520 kts 53°
2026-04-25 15:54 34.82067 -116.89766 28870 ft 515 kts 53°
2026-04-25 15:54 34.86189 -116.82719 28867 ft 515 kts 53°
2026-04-25 15:55 34.90347 -116.75595 28870 ft 517 kts 53°
2026-04-25 15:55 34.94488 -116.68442 28860 ft 517 kts 54°
2026-04-25 15:56 34.98499 -116.61329 28846 ft 497 kts 54°
2026-04-25 15:56 35.02287 -116.54532 28827 ft 472 kts 54°
2026-04-25 15:57 35.04103 -116.51287 28823 ft 455 kts 54°
2026-04-25 15:57 35.05863 -116.48154 28818 ft 440 kts 54°